Skip to main content Skip to accessibility
This website is not compatible with your web browser. You should install a newer browser. If you live in Jersey and need help upgrading call the States of Jersey web team on 440099.
Homegov.je

L'înformâtion et les sèrvices publyis pouor I'Île dé Jèrri

  • Choose the service you want to log in to:

  • gov.je

    Update your notification preferences

  • one.gov.je

    Access government and parish services

  • CAESAR

    Clear goods through customs or claim relief

  • Talentlink

    View or update your States of Jersey job application

Local METARs

METAR EGJJ 191520Z 22011KT 9999 VCSH BKN020 20/17 Q1012

METAR EGJB 191520Z 21008KT 5000 1000S R27/P1500 -DZ VCFG FEW000 BKN001 BKN012 18/17 Q1012

METAR EGJA 191520Z 21010KT 0100 R26/0125 DZ FG BKN000 17/17 Q1012

METAR LFRD 191530Z AUTO 21014KT 9999 FEW047 OVC074 24/17 Q1013 NOSIG

METAR LFRC 191530Z AUTO 22012KT 190V270 9999 OVC019 21/16 Q1012 TEMPO SHRA BKN008 BECMG 21015G25KT

 

 

 

​Times are in Greenwich Mean Time (GMT) and not British Summer Time (BST). They will be one hour different during BST.

Back to top
rating button